Location: Jonesport
(44.5330°N, 67.5990°W)
Time: 12:27:58
(UTC-04:00)

Iridium 35 - Visible Passes

Search period start: 23 March 2017 00:00
Search period end: 02 April 2017 00:00
Orbit: 776 x 779 km, 86.4° (Epoch: 21 March)

Date Brightness Start Highest point End Pass type
(mag) Time Alt. Az. Time Alt. Az. Time Alt. Az.
23 Mar 7.7 22:38:44 10° NNE 22:38:57 11° NNE 22:38:57 11° NNE visible
24 Mar 7.9 00:19:02 10° NNW 00:19:26 12° NNW 00:19:26 12° NNW visible
24 Mar 7.7 23:45:16 10° N 23:46:08 15° N 23:46:08 15° N visible
25 Mar 7.5 23:11:46 10° N 23:12:50 16° N 23:12:50 16° N visible
26 Mar 7.4 22:38:31 10° NNE 22:39:33 15° NNE 22:39:33 15° NNE visible
27 Mar 7.8 00:19:26 10° NNW 00:20:01 13° NNW 00:20:01 13° NNW visible
27 Mar 7.4 22:05:38 10° NNE 22:06:16 12° NNE 22:06:16 12° NNE visible
27 Mar 7.5 23:45:29 10° NNW 23:46:44 17° NNW 23:46:44 17° NNW visible
28 Mar 7.2 23:11:49 10° N 23:13:28 21° N 23:13:28 21° N visible
29 Mar 7.1 22:38:24 10° N 22:40:11 21° NNE 22:40:11 21° NNE visible
30 Mar 7.8 00:19:59 10° NNW 00:20:40 13° NW 00:20:40 13° NW visible
30 Mar 7.1 22:05:17 10° NNE 22:06:56 18° NNE 22:06:56 18° NNE visible
30 Mar 7.4 23:45:48 10° NNW 23:47:24 19° NNW 23:47:24 19° NNW visible
31 Mar 7.2 21:32:39 10° NNE 21:33:40 13° NE 21:33:40 13° NE visible
31 Mar 7.0 23:11:58 10° N 23:14:09 25° NNW 23:14:09 25° NNW visible
01 Apr 6.7 22:38:24 10° N 22:40:54 29° N 22:40:54 29° N visible
